Bakersfield, CA

10:45 PM PDT on March 26, 2017 (GMT -0700)
Meadows

Weather History for KBFL - May, 2013

Change the Weather History Date:

Wednesday, May 29, 2013

  Actual Average Record
Temperature  
Mean Temperature 74 °F 73 °F  
Max Temperature 88 °F 87 °F 106 °F (1973)
Min Temperature 59 °F 60 °F 45 °F (1927)
Degree Days  
Heating Degree Days 0    
Month to date heating degree days 6  
Since 1 July heating degree days 1829  
Cooling Degree Days 9    
Month to date cooling degree days 231  
Year to date cooling degree days 361  
Growing Degree Days 24 (Base 50)    
Moisture  
Dew Point 47 °F    
Average Humidity 46    
Maximum Humidity 67    
Minimum Humidity 25    
Precipitation  
Precipitation 0.00 in 0.00 in 0.70 in (1919)
Month to date precipitation 0.05 0.17  
Year to date precipitation 2.36 4.30  
Since 1 July precipitation 3.15  
Snow  
Snow 0.00 in - - ()
Month to date snowfall 0.0  
Since 1 July snowfall 0.0  
Snow Depth 0.00 in    
Sea Level Pressure  
Sea Level Pressure 29.85 in    
Wind  
Wind Speed 7 mph (NW)    
Max Wind Speed 20 mph    
Max Gust Speed 23 mph    
Visibility 10 miles    
Events      
T = Trace of Precipitation, MM = Missing Value Source: NWS Daily Summary

Daily Weather History Graph

Daily Weather History Graph

Search for Another Location

Airport or City:

Trip Planner

Search our weather history database for the weather conditions in past years. The results will help you decide how hot, cold, wet, or windy it might be!

Date:

Astronomy

May. 29, 2013 Rise Set
Actual Time 5:43 AM PDT 8:04 PM PDT
Civil Twilight 5:14 AM PDT 8:33 PM PDT
Nautical Twilight 4:38 AM PDT 9:09 PM PDT
Astronomical Twilight 3:58 AM PDT 9:49 PM PDT
Moon No Moon Rise 10:42 AM PDT (5/29)
Length of Visible Light 15h 19m
Length of Day
14h 21m
Waning Gibbous, 72% of the Moon is Illuminated
May 29
Waning Gibbous
May 31
Last Quarter
Jun 8
New
Jun 16
First Quarter
Jun 23
Full

Hourly Weather History & Observations

Time (PDT) Temp. Dew Point Humidity Pressure Visibility Wind Dir Wind Speed Gust Speed Precip Events Conditions
12:54 AM 64.9 °F 51.1 °F 61% 29.88 in 10.0 mi Calm Calm - N/A   Clear
1:54 AM 62.1 °F 51.1 °F 67% 29.89 in 10.0 mi NNW 5.8 mph - N/A   Clear
2:54 AM 62.1 °F 52.0 °F 70% 29.88 in 10.0 mi North 3.5 mph - N/A   Clear
3:54 AM 62.1 °F 50.0 °F 65% 29.88 in 10.0 mi North 5.8 mph - N/A   Clear
4:54 AM 61.0 °F 48.9 °F 64% 29.88 in 10.0 mi North 6.9 mph - N/A   Clear
5:54 AM 61.0 °F 48.9 °F 64% 29.89 in 9.0 mi NE 3.5 mph - N/A   Clear
6:54 AM 64.0 °F 50.0 °F 60% 29.91 in 10.0 mi Calm Calm - N/A   Clear
7:54 AM 68.0 °F 48.9 °F 50% 29.92 in 10.0 mi NW 8.1 mph - N/A   Clear
8:54 AM 69.1 °F 48.9 °F 49% 29.92 in 10.0 mi WNW 6.9 mph - N/A   Clear
9:54 AM 73.9 °F 44.1 °F 34% 29.91 in 10.0 mi WNW 15.0 mph 19.6 mph N/A   Clear
10:54 AM 75.9 °F 44.1 °F 32% 29.91 in 10.0 mi WNW 11.5 mph 17.3 mph N/A   Clear
11:54 AM 78.1 °F 45.0 °F 31% 29.89 in 10.0 mi Variable 6.9 mph - N/A   Clear
12:54 PM 78.1 °F 45.0 °F 31% 29.86 in 10.0 mi SW 5.8 mph - N/A   Clear
1:54 PM 81.0 °F 45.0 °F 28% 29.83 in 10.0 mi WSW 8.1 mph - N/A   Clear
2:54 PM 84.0 °F 44.1 °F 25% 29.81 in 10.0 mi NW 9.2 mph 23.0 mph N/A   Clear
3:54 PM 84.0 °F 48.0 °F 28% 29.78 in 10.0 mi WNW 13.8 mph 19.6 mph N/A   Clear
4:54 PM 86.0 °F 48.9 °F 28% 29.77 in 10.0 mi NW 10.4 mph 20.7 mph N/A   Partly Cloudy
5:54 PM 87.1 °F 46.0 °F 24% 29.76 in 10.0 mi NW 19.6 mph 23.0 mph N/A   Partly Cloudy
6:54 PM 84.9 °F 44.1 °F 24% 29.75 in 10.0 mi NNW 17.3 mph - N/A   Clear
7:54 PM 81.0 °F 46.9 °F 30% 29.76 in 10.0 mi NNW 10.4 mph - N/A   Clear
8:54 PM 77.0 °F 48.0 °F 36% 29.79 in 10.0 mi NNW 9.2 mph - N/A   Clear
9:54 PM 73.0 °F 46.9 °F 39% 29.83 in 10.0 mi NNW 10.4 mph - N/A   Clear
10:54 PM 71.1 °F 43.0 °F 36% 29.85 in 10.0 mi NNW 9.2 mph - N/A   Clear
11:54 PM 68.0 °F 45.0 °F 43% 29.87 in 10.0 mi West 5.8 mph - N/A   Clear